Total_Precipitation_Accumulation
0.02 0.04 0.11 0.14 0.16 0.16 0.18 0.18 0.21 0.19 0.19 0.16 0.12 0.12 0.11 0.12 0.11 0.07 0.03 0.01 0.00 0.00 0.00 0.00 0.00 0.00 0.00 0.00 0.00 0.00 0.00 0.00 0.00 0.00 0.00 0.00 0.00 0.00 0.00 0.00 0.00 0.00 0.00
0.19 0.30 0.32 0.31 0.28 0.30 0.26 0.20 0.19 0.19 0.23 0.18 0.12 0.16 0.19 0.16 0.17 0.21 0.21 0.16 0.09 0.04 0.01 0.00 0.00 0.00 0.00 0.00 0.00 0.00 0.00 0.00 0.00 0.00 0.00 0.00 0.00 0.00 0.00 0.00 0.00 0.00 0.00
0.28 0.30 0.31 0.29 0.30 0.33 0.35 0.38 0.25 0.29 0.31 0.24 0.19 0.17 0.16 0.17 0.18 0.16 0.18 0.16 0.13 0.08 0.03 0.01 0.00 0.00 0.00 0.00 0.00 0.00 0.00 0.00 0.00 0.00 0.00 0.00 0.00 0.00 0.00 0.00 0.00 0.00 0.00
0.26 0.30 0.24 0.26 0.31 0.32 0.33 0.34 0.33 0.36 0.33 0.32 0.29 0.26 0.27 0.21 0.16 0.19 0.22 0.22 0.21 0.15 0.06 0.03 0.02 0.01 0.00 0.00 0.00 0.00 0.00 0.00 0.00 0.00 0.00 0.00 0.00 0.00 0.00 0.00 0.00 0.00 0.00
0.47 0.44 0.40 0.34 0.31 0.40 0.47 0.38 0.32 0.33 0.37 0.42 0.39 0.26 0.25 0.27 0.26 0.21 0.16 0.15 0.17 0.15 0.09 0.05 0.03 0.01 0.01 0.01 0.00 0.00 0.00 0.00 0.00 0.00 0.00 0.00 0.00 0.00 0.00 0.00 0.00 0.00 0.00
0.47 0.54 0.53 0.51 0.49 0.50 0.55 0.53 0.40 0.40 0.33 0.30 0.40 0.38 0.31 0.26 0.25 0.25 0.23 0.18 0.12 0.06 0.04 0.04 0.04 0.03 0.01 0.00 0.00 0.00 0.00 0.00 0.00 0.00 0.00 0.00 0.00 0.00 0.00 0.00 0.00 0.00 0.01
0.52 0.43 0.40 0.45 0.52 0.53 0.55 0.61 0.59 0.48 0.37 0.37 0.32 0.28 0.30 0.23 0.17 0.16 0.17 0.19 0.15 0.11 0.08 0.06 0.03 0.01 0.00 0.00 0.00 0.00 0.00 0.00 0.00 0.00 0.00 0.00 0.00 0.00 0.00 0.00 0.00 0.00 0.00
0.42 0.44 0.46 0.43 0.48 0.50 0.55 0.50 0.49 0.48 0.41 0.37 0.38 0.28 0.20 0.18 0.16 0.13 0.11 0.14 0.16 0.14 0.10 0.05 0.02 0.00 0.00 0.00 0.00 0.00 0.00 0.00 0.00 0.00 0.00 0.00 0.00 0.00 0.00 0.00 0.00 0.00 0.00
0.53 0.59 0.61 0.45 0.36 0.41 0.46 0.40 0.36 0.38 0.41 0.37 0.31 0.24 0.18 0.16 0.13 0.14 0.16 0.15 0.12 0.09 0.04 0.02 0.01 0.00 0.00 0.00 0.00 0.00 0.00 0.00 0.00 0.00 0.00 0.00 0.00 0.00 0.00 0.00 0.00 0.00 0.00
0.72 0.58 0.56 0.49 0.33 0.32 0.29 0.29 0.31 0.28 0.29 0.28 0.23 0.18 0.16 0.14 0.10 0.08 0.07 0.05 0.04 0.02 0.01 0.01 0.00 0.00 0.02 0.01 0.00 0.00 0.00 0.00 0.00 0.00 0.00 0.00 0.00 0.00 0.00 0.00 0.00 0.00 0.00
0.35 0.66 0.62 0.64 0.39 0.31 0.28 0.27 0.26 0.27 0.25 0.22 0.19 0.20 0.13 0.08 0.06 0.03 0.02 0.02 0.01 0.02 0.01 0.00 0.00 0.00 0.00 0.00 0.00 0.00 0.00 0.00 0.00 0.00 0.00 0.00 0.00 0.00 0.00 0.00 0.00 0.00 0.00
0.04 0.26 0.57 0.56 0.39 0.27 0.26 0.25 0.25 0.19 0.16 0.16 0.19 0.17 0.07 0.03 0.03 0.02 0.01 0.01 0.01 0.01 0.00 0.00 0.00 0.00 0.00 0.00 0.00 0.00 0.00 0.00 0.00 0.00 0.00 0.00 0.00 0.00 0.00 0.00 0.00 0.00 0.00
0.00 0.04 0.24 0.51 0.45 0.22 0.26 0.22 0.19 0.16 0.10 0.12 0.09 0.06 0.05 0.04 0.04 0.03 0.01 0.00 0.00 0.00 0.00 0.00 0.00 0.00 0.00 0.00 0.00 0.00 0.00 0.00 0.00 0.00 0.00 0.00 0.00 0.00 0.00 0.00 0.00 0.00 0.00
0.00 0.00 0.03 0.20 0.52 0.37 0.26 0.20 0.15 0.12 0.09 0.08 0.06 0.04 0.03 0.03 0.03 0.01 0.00 0.00 0.00 0.00 0.00 0.00 0.00 0.00 0.00 0.00 0.00 0.00 0.00 0.00 0.00 0.00 0.00 0.00 0.00 0.00 0.00 0.00 0.00 0.00 0.00
0.00 0.00 0.02 0.04 0.16 0.43 0.42 0.29 0.12 0.07 0.05 0.05 0.04 0.01 0.01 0.02 0.01 0.00 0.00 0.00 0.00 0.00 0.00 0.01 0.00 0.00 0.00 0.00 0.00 0.00 0.00 0.00 0.00 0.00 0.00 0.00 0.00 0.00 0.00 0.00 0.00 0.00 0.00
0.03 0.03 0.13 0.11 0.10 0.23 0.40 0.46 0.36 0.12 0.03 0.01 0.00 0.00 0.00 0.00 0.00 0.00 0.00 0.00 0.00 0.00 0.00 0.00 0.00 0.00 0.00 0.00 0.00 0.00 0.00 0.00 0.00 0.00 0.00 0.00 0.00 0.00 0.00 0.00 0.00 0.00 0.00
0.11 0.13 0.15 0.23 0.15 0.13 0.23 0.25 0.33 0.27 0.08 0.00 0.00 0.00 0.00 0.00 0.00 0.00 0.01 0.00 0.00 0.00 0.00 0.00 0.01 0.01 0.00 0.00 0.00 0.00 0.00 0.00 0.00 0.00 0.00 0.00 0.00 0.00 0.00 0.00 0.00 0.00 0.00
0.18 0.15 0.13 0.18 0.20 0.16 0.14 0.19 0.26 0.20 0.15 0.10 0.03 0.00 0.00 0.00 0.00 0.01 0.01 0.01 0.01 0.00 0.00 0.00 0.01 0.01 0.00 0.00 0.00 0.00 0.00 0.00 0.00 0.00 0.00 0.00 0.00 0.00 0.00 0.00 0.00 0.00 0.00
0.23 0.16 0.13 0.15 0.20 0.23 0.19 0.13 0.22 0.25 0.17 0.08 0.08 0.09 0.03 0.00 0.01 0.02 0.01 0.01 0.00 0.00 0.00 0.00 0.00 0.00 0.00 0.00 0.00 0.00 0.00 0.00 0.00 0.00 0.00 0.00 0.00 0.00 0.00 0.00 0.00 0.00 0.00
0.32 0.31 0.20 0.14 0.17 0.24 0.24 0.15 0.14 0.16 0.16 0.12 0.08 0.06 0.08 0.07 0.10 0.10 0.04 0.02 0.01 0.00 0.00 0.00 0.00 0.00 0.00 0.00 0.00 0.00 0.01 0.01 0.00 0.00 0.00 0.01 0.01 0.01 0.01 0.01 0.01 0.01 0.00
0.28 0.33 0.27 0.15 0.13 0.15 0.16 0.16 0.12 0.08 0.10 0.11 0.06 0.03 0.02 0.02 0.03 0.03 0.03 0.02 0.01 0.00 0.00 0.00 0.00 0.00 0.00 0.00 0.00 0.00 0.01 0.01 0.01 0.00 0.00 0.01 0.01 0.02 0.01 0.01 0.01 0.01 0.00
0.28 0.26 0.29 0.23 0.13 0.14 0.13 0.14 0.14 0.12 0.09 0.08 0.07 0.04 0.02 0.02 0.01 0.01 0.02 0.01 0.00 0.00 0.00 0.00 0.00 0.00 0.00 0.00 0.00 0.01 0.01 0.01 0.01 0.01 0.01 0.01 0.02 0.02 0.02 0.02 0.02 0.02 0.00
0.27 0.25 0.23 0.24 0.16 0.12 0.11 0.11 0.13 0.13 0.11 0.07 0.04 0.04 0.03 0.02 0.01 0.01 0.01 0.01 0.00 0.00 0.01 0.00 0.01 0.00 0.00 0.00 0.00 0.00 0.01 0.01 0.01 0.02 0.02 0.02 0.02 0.02 0.03 0.03 0.03 0.02 0.02
0.32 0.29 0.21 0.15 0.12 0.10 0.08 0.07 0.07 0.09 0.08 0.05 0.03 0.02 0.01 0.02 0.01 0.01 0.01 0.02 0.01 0.01 0.01 0.01 0.00 0.01 0.00 0.00 0.00 0.00 0.00 0.01 0.01 0.01 0.03 0.04 0.04 0.03 0.03 0.03 0.03 0.03 0.02
0.35 0.33 0.26 0.21 0.15 0.09 0.05 0.04 0.04 0.04 0.04 0.03 0.02 0.02 0.01 0.02 0.01 0.01 0.01 0.01 0.01 0.01 0.01 0.00 0.01 0.00 0.00 0.00 0.00 0.00 0.00 0.00 0.01 0.01 0.01 0.02 0.04 0.04 0.03 0.02 0.01 0.03 0.02
0.25 0.24 0.23 0.23 0.21 0.18 0.13 0.09 0.05 0.03 0.02 0.02 0.02 0.01 0.01 0.01 0.00 0.01 0.01 0.00 0.00 0.00 0.00 0.00 0.01 0.01 0.01 0.01 0.01 0.02 0.01 0.01 0.01 0.00 0.01 0.01 0.02 0.03 0.03 0.03 0.02 0.02 0.01